Notices

What's New in latest Release from April 7th, 2021:

- Updated Glossary, including Speed of Maximum Gust, and Total Hourly Precipitation

- Updated national and regional climate services offices contacts and prices information

- Addition of station inventory lists for 1981-2010, 1971-2000, and 1961-1990 Normals.

If you haven't already, please take our survey and provide feedback about our website: https://eccc.sondage-survey.ca/f/LanguageSelection.aspx?s=442ca660-fcf1-47c0-95a9-59707d6fd709

Hourly Data Report for October 07, 2020

CARBERRY CS
MANITOBA
Current Station Operator: ECCC - MSC

49°54'20.900" N
99°21'26.800" W
383.50 m
5010547
71170
WZE

Download Data

Hourly Data (October 2020)
Hourly Data Report for October 7, 2020
TIME
LST
Temp Definition
°C
Dew Point Definition
°C
Rel Hum Definition
%
Precip. Amount Definition
mm

Wind Dir Definition
10's deg

Wind Spd Definition
km/h
Visibility Definition
km
Stn Press Definition
kPa
Hmdx Definition


Wind Chill Definition


Weather Definition


00:00 6.6 6.5 100 0.0 22 7   96.39     LegendNANA
01:00 5.4 5.3 100 0.0 24 8   96.41     LegendNANA
02:00 5.4 5.3 100 0.0 27 15   96.50     LegendNANA
03:00 4.5 4.3 99 0.0 27 17   96.55     LegendNANA
04:00 4.7 4.7 100 0.0 26 18   96.64     LegendNANA
05:00 4.9 4.5 98 0.0 23 14   96.67     LegendNANA
06:00 4.4 4.0 97 0.0 24 14   96.74     LegendNANA
07:00 4.1 3.3 95 0.0 25 14   96.82     LegendNANA
08:00 5.3 3.5 88 0.0 26 17   96.89     LegendNANA
09:00 7.2 4.8 84 0.0 27 16   96.98     LegendNANA
10:00 9.4 5.2 75 0.0 30 24   97.04     LegendNANA
11:00 11.6 4.9 63 0.0 31 24   97.10     LegendNANA
12:00 12.4 4.9 60 0.0 31 26   97.14     LegendNANA
13:00 12.6 4.1 56 0.0 31 22   97.19     LegendNANA
14:00 14.3 3.0 46 0.0 29 25   97.18     LegendNANA
15:00 13.1 2.0 47 0.0 29 30   97.21     LegendNANA
16:00 13.0 1.6 46 0.0 30 25   97.23     LegendNANA
17:00 12.6 1.4 46 0.0 29 24   97.26     LegendNANA
18:00 9.9 1.0 54 0.0 28 14   97.31     LegendNANA
19:00 7.9 0.4 59 0.0 25 11   97.32     LegendNANA
20:00 4.6 -1.0 67 0.0 26 9   97.33     LegendNANA
21:00 3.3 0.0 79 0.0 25 4   97.35     LegendNANA
22:00 3.8 0.1 77 0.0 25 9   97.38     LegendNANA
23:00 1.8 -1.3 80 0.0 25 9   97.39     LegendNANA

Notes on Data Quality.

Legend

  • E = Estimated
  • M = Missing
  • NA = Not Available*
  • [empty] = Indicates an unobserved value
Date modified: